Hourly Data Report for July 27, 2021

SALLUIT
QUEBEC
Current Station Operator: ECCC - MSC

62°10'46.005" N
75°40'13.006" W
228.00 m
7117800
71641
MFX

Download Data

Hourly Data (July 2021)
Hourly Data Report for July 27, 2021
TIME
LST
Temp Definition
°C
Dew Point Definition
°C
Rel Hum Definition
%
Precip. Amount Definition
mm

Wind Dir Definition
10's deg

Wind Spd Definition
km/h
Visibility Definition
km
Stn Press Definition
kPa
Hmdx Definition


Wind Chill Definition


Weather Definition


00:00 3.8 1.5 85 0.0 23 43   97.41     LegendNANA
01:00 3.7 2.4 91 0.0 23 41   97.46     LegendNANA
02:00 4.0 2.0 87 0.0 23 35   97.52     LegendNANA
03:00 4.2 2.1 86 0.0 23 38   97.59     LegendNANA
04:00 4.4 2.5 87 0.0 22 32   97.67     LegendNANA
05:00 4.7 2.6 86 0.0 23 30   97.72     LegendNANA
06:00 4.6 3.1 90 0.0 22 24   97.75     LegendNANA
07:00 4.4 3.4 93 0.0 20 32   97.82     LegendNANA
08:00 4.7 3.4 92 0.0 21 31   97.85     LegendNANA
09:00 5.2 3.2 87 0.0 21 36   97.86     LegendNANA
10:00 6.1 3.1 82 0.0 21 28   97.87     LegendNANA
11:00 7.5 2.4 70 0.0 21 33   97.87     LegendNANA
12:00 7.8 2.5 69 0.0 20 46   97.81     LegendNANA
13:00 8.6 3.6 71 0.0 21 36   97.86     LegendNANA
14:00 9.0 3.6 69 0.0 20 45   97.83     LegendNANA
15:00 9.8 4.9 72 0.0 21 44   97.88     LegendNANA
16:00 9.3 5.1 75 0.0 21 42   97.90     LegendNANA
17:00 10.4 5.3 70 0.0 21 45   97.87     LegendNANA
18:00 10.5 5.7 72 0.0 20 34   97.88     LegendNANA
19:00 9.2 6.5 83 0.0 20 38   97.87     LegendNANA
20:00 8.9 7.0 88 0.0 21 39   97.85     LegendNANA
21:00 8.8 7.1 89 0.0 21 28   97.85     LegendNANA
22:00 9.3 7.1 86 0.0 20 23   97.84     LegendNANA
23:00 9.3 6.5 83 0.0 21 30   97.82     LegendNANA

Notes on Data Quality.

Legend

  • E = Estimated
  • M = Missing
  • NA = Not Available*
  • [empty] = Indicates an unobserved value
Date modified: